Home   Weather   Niagara Falls   Past weeks

Flag for Canada Past Weather in Niagara Falls, Ontario, Canada — Yesterday and Last 2 Weeks

Now
37 °F

Low clouds.


Feels Like: 30 °F
Forecast: 34 / 40 °F
Wind: 9 mph from East

Location: Niagara Falls International Airport

Current Time: Jan 17, 2017 at 12:22:32 pm

Latest Report: Jan 17, 2017 at 11:24 am


Visibility: 7 mi

Pressure: 29.87 "Hg

Humidity: 86%

Dew Point: 33 °F

Location of Niagara FallsLocation

Past Weather in Niagara Falls — Graph

°F

Niagara Falls Temperature Yesterday

Maximum temperature yesterday: 38 °F (at 12:53 pm)
Minimum temperature yesterday: 19 °F (at 12:53 am)
Average temperature yesterday: 31 °F

High & Low Weather Summary for the Past Weeks

 TemperatureHumidityPressure
High58 °F (Jan 12, 4:00 am)93% (Jan 3, 6:10 pm)30.81 "Hg (Jan 3, 6:10 pm)
Low7 °F (Jan 7, 3:53 am)36% (Jan 16, 6:53 pm)29.42 "Hg (Jan 4, 1:00 am)
Average30 °F68%30.14 "Hg
* Reported Jan 2 11:53 am — Jan 17 11:07 am, Niagara Falls, Weather by CustomWeather, © 2017

Note: Actual official high and low records may vary slightly from our data, if they occured in-between our weather recording intervals... More about our weather records

Advertising

Niagara Falls Weather History for the Previous 24 Hours

Scroll right to see more
 ConditionsComfort  
Time TempWeatherWind HumidityBarometerVisibility
11:07 am
Tue, Jan 17
37 °FLight rain. Fog.10 mph86%29.88 "Hg5 mi
10:25 am36 °FRain. Fog.9 mph85%29.91 "Hg2 mi
9:53 am36 °FLight rain. Mostly cloudy.10 mph82%29.96 "Hg3 mi
9:33 am36 °FLight rain. Overcast.14 mph79%29.94 "Hg2 mi
8:53 am36 °FLight rain. Mostly cloudy.12 mph73%30.00 "Hg10 mi
8:19 am36 °FMostly cloudy.12 mph75%29.98 "Hg10 mi
7:53 am36 °FLight rain. Mostly cloudy.15 mph75%30.03 "Hg10 mi
7:20 am36 °FLight rain. Overcast.13 mph75%30.01 "Hg10 mi
6:53 am36 °FLight rain. Mostly cloudy.10 mph75%30.07 "Hg10 mi
5:53 am35 °FLight rain. Overcast.10 mph75%30.11 "Hg10 mi
4:53 am35 °FLight rain. Mostly cloudy.7 mph75%30.15 "Hg9 mi
3:53 am34 °FOvercast.7 mph79%30.16 "Hg9 mi
2:53 am34 °FLight rain. Overcast.5 mph76%30.20 "Hg8 mi
1:53 am34 °FOvercast.3 mph73%30.20 "Hg10 mi
12:53 am34 °FLight rain. Mostly cloudy.3 mph73%30.22 "Hg9 mi
11:53 pm
Mon, Jan 16
35 °FLight rain. Overcast.No wind64%30.24 "Hg10 mi
10:53 pm35 °FOvercast.No wind56%30.26 "Hg10 mi
9:53 pm35 °FOvercast.5 mph54%30.27 "Hg10 mi
8:53 pm35 °FPassing clouds.No wind50%30.28 "Hg10 mi
7:53 pm36 °FPassing clouds.3 mph37%30.29 "Hg10 mi
6:53 pm37 °FOvercast.5 mph36%30.30 "Hg10 mi
5:53 pm36 °FOvercast.6 mph44%30.31 "Hg10 mi
4:53 pm36 °FSunny.7 mph50%30.31 "Hg10 mi
3:53 pm37 °FSunny.9 mph60%30.31 "Hg10 mi
2:53 pm38 °FSunny.10 mph55%30.32 "Hg10 mi
1:53 pm38 °FSunny.10 mph55%30.33 "Hg10 mi
12:53 pm38 °FSunny.12 mph60%30.35 "Hg10 mi
Weather by CustomWeather, © 2017

See weather overviewHow to use our weather pages